SL-16 DEB, 22617

Orbit data source: Space-Track

SL-16 DEB, 22617 is space debris in LEO originally from a launch on Fri, 26 Mar 1993 UTC launched from the Tyuratam Missile And Space Complex (TTMTR). Debris objects in space refer to the collection of defunct objects orbiting the Earth. Examples of debris include non-operational satellites, rocket bodies, and fragments generated from explosions, collisions, or faulty payload assembly.

Loading next visibility...
Identifier
22617, 1993-016AB
Orbit
LEO
Country
Flag of CISCIS
Related business
Manufacturer
Unknown
Mission
Spacecraft
Bus & Motor
Unknown
Mass
Unknown
Launch date (UTC)
1993-03-26 (32 years ago)
Launch vehicle
Unknown
Launch site
Tyuratam Missile And Space Complex (TTMTR)
Object type
Payload
Rocket body
Debris
Shape & HBR
Unknown
Radar Cross Section
Small (<0.1 m²)

Expand to show TLE details & history
Last TLE update: 14 hours ago

TLE from 14 hours ago
0 SL-16 DEB
1 22617U 93016AB  25258.55188682  .00000520  00000-0  41111-3 0  9990
2 22617  70.9987 298.4636 0133495 192.6418 289.7871 13.92013118642298
Epoch: 2025-09-15T13:14Z
TLE epoch observation values (Epoch: 2025-09-15T13:14:43.021Z)
Latitude
54.26765°
Longitude
-103.40372°
Altitude
898.144 km
Speed
7.425 km/s
True Right ascension
06h 00m 07s
True Declination
54° 06' 27"
Sunlit
Object was in daylight at epoch
Visualization orbit readout
Latitude
Unknown
Longitude
Unknown
Altitude
Unknown
Speed
Unknown
Apparent Right ascension
Unknown
Apparent Declination
Unknown
Sunlit
N/A
Visualization observer readout
Local Sidereal Time
19:40:21
Azimuth
Unknown
Elevation
Unknown
Doppler factor
Unknown
Orbital elements
Apogee altitude
1,016.952 km
Perigee altitude
822.111 km
Semi-major axis
7,297.669 km
Eccentricity
0.01335
Inclination
70.9987°
RAAN
298.4636°
Arg. of periapsis
192.6418°
True anomaly
288.33966°
Mean anomaly
289.7871°
Eccentric anomaly
289.06418°
Mean motion
3.4815 °/min
Orbital period
103.4 mins
BSTAR
0.00041111
Loading maneuver chart data...
Computing Atmospheric mass density...
Loading historical data...
Loading historical data...
Loading historical data...
Loading historical data...
Loading historical data...
Loading historical data...
Loading historical data...

Documentation

Showing up to 5 results
|